Location: Cul de Sac
(18.0387°N, 63.0654°W)
Time: 17:36:33
(UTC+00:00)

Elektron 3 - Pass Details

Date: 29 October 2020
Orbit: 410 x 6158 km, 60.8° (Epoch: 27 November)

Event Time Altitude Azimuth Distance (km) Brightness Sun altitude
Rises 22:15:29 0° 340° (NNW) 2,924 8.1 -8.8°
Reaches altitude 10° 22:18:10 10° 350° (N) 1,694 6.8 -9.4°
Maximum altitude 22:21:13 33° 58° (ENE) 719 4.4 -10.1°
Drops below altitude 10° 22:23:54 10° 126° (SE) 1,484 6.1 -10.7°
Enters shadow 22:25:18 - 134° (SE) 2,110 7.0 -11.1°
